This is the latest recevied weather packets stored in our database for station/object DB0OHA-13. If no packets are shown the sender has not sent any weather packets the latest 1 day(s).
| Time | Temp. | Humidity | Pressure | Rain* | Wind** | Luminosity | Snow |
|---|---|---|---|---|---|---|---|
| 1777967470 | 13.89° C | 1% | 1009.1 hPa | 0 mm | 0 m/s | 146 W/m² | - |
| 1777966870 | 13.89° C | 1% | 1009.1 hPa | 0 mm | 0 m/s | 110 W/m² | - |
| 1777966270 | 13.33° C | 1% | 1009.1 hPa | 0 mm | 0 m/s | 92 W/m² | - |
| 1777965670 | 13.89° C | 1% | 1009.3 hPa | 0 mm | 0 m/s | 108 W/m² | - |
| 1777965070 | 13.33° C | 1% | 1009.2 hPa | 0 mm | 0 m/s | 123 W/m² | - |
| 1777964470 | 13.33° C | 1% | 1009.3 hPa | 0 mm | 0 m/s | 105 W/m² | - |
| 1777963870 | 12.78° C | 1% | 1009.3 hPa | 0 mm | 0 m/s | 93 W/m² | - |
| 1777963270 | 12.78° C | 1% | 1009.5 hPa | 0 mm | 0 m/s | 81 W/m² | - |
| 1777962670 | 12.78° C | 1% | 1009.8 hPa | 0 mm | 0 m/s | 73 W/m² | - |
| 1777962069 | 12.78° C | 1% | 1009.8 hPa | 0 mm | 0 m/s | 62 W/m² | - |
| 1777961469 | 12.78° C | 1% | 1009.8 hPa | 0 mm | 0 m/s | 53 W/m² | - |
| 1777960870 | 12.22° C | 1% | 1009.8 hPa | 0 mm | 0 m/s | 37 W/m² | - |
| 1777960269 | 12.22° C | 1% | 1009.8 hPa | 0 mm | 0 m/s | 28 W/m² | - |
| 1777959669 | 12.22° C | 1% | 1009.9 hPa | 0 mm | 0.45 m/s, 38° | 22 W/m² | - |
| 1777959069 | 12.22° C | 1% | 1009.8 hPa | 0.25 mm | 0.89 m/s, 38° | 19 W/m² | - |
| 1777958469 | 12.22° C | 1% | 1009.8 hPa | 0.25 mm | 0 m/s | 18 W/m² | - |
| 1777957874 | 12.22° C | 1% | 1009.8 hPa | 0.25 mm | 0 m/s | 32 W/m² | - |
| 1777957273 | 12.22° C | 1% | 1009.8 hPa | 0.25 mm | 0 m/s | 25 W/m² | - |
| 1777956674 | 11.67° C | 1% | 1009.8 hPa | 0.25 mm | 0 m/s | 24 W/m² | - |
| 1777956073 | 11.67° C | 1% | 1009.9 hPa | 0.51 mm | 0 m/s | 11 W/m² | - |
| 1777955474 | 11.67° C | 1% | 1009.9 hPa | 0.25 mm | 0 m/s | 6 W/m² | - |
| 1777954873 | 11.67° C | 1% | 1010 hPa | 0.25 mm | 0.89 m/s, 38° | 5 W/m² | - |
| 1777954274 | 11.67° C | 1% | 1010.1 hPa | 0.25 mm | 0 m/s | 1 W/m² | - |
| 1777952473 | 11.67° C | 1% | 1010.2 hPa | 0 mm | 0 m/s | 0 W/m² | - |
| 1777951873 | 12.22° C | 1% | 1010.3 hPa | 0 mm | 0 m/s | 0 W/m² | - |
* Rain latest hour (hover to see other rain measurements)
** Current wind speed in m/s (hover to see current wind gust speed)